Time,TemperatureF,DewpointF,PressureIn,WindDirection,WindDirectionDegrees,WindSpeedMPH,WindSpeedGustMPH,Humidity,HourlyPrecipIn,Conditions,Clouds,dailyrainin,SoftwareType,DateUTC
2013-08-31 00:00:00,70.3,63.2,29.81,ENE,67,0.0,0.0,78,0.00,,,0.00,WUHU21623XXSP,2013-08-31 04:00:00,
2013-08-31 00:01:00,70.3,63.2,29.81,ENE,67,0.0,0.0,78,0.00,,,0.00,WUHU21623XXSP,2013-08-31 04:01:00,
2013-08-31 00:06:00,70.3,63.2,29.81,SE,135,0.0,0.0,78,0.00,,,0.00,WUHU21623XXSP,2013-08-31 04:06:00,
2013-08-31 00:11:00,70.3,63.2,29.80,SSE,157,0.0,0.0,78,0.00,,,0.00,WUHU21623XXSP,2013-08-31 04:11:00,
2013-08-31 00:16:00,70.5,63.8,29.80,South,180,0.0,0.0,79,0.00,,,0.00,WUHU21623XXSP,2013-08-31 04:16:00,
2013-08-31 00:21:00,70.5,63.8,29.80,SSE,157,0.0,0.0,79,0.00,,,0.00,WUHU21623XXSP,2013-08-31 04:21:00,
2013-08-31 00:26:00,70.7,64.0,29.80,SE,135,0.0,0.0,79,0.00,,,0.00,WUHU21623XXSP,2013-08-31 04:26:00,
2013-08-31 00:31:00,70.9,64.2,29.80,SE,135,0.0,0.0,79,0.00,,,0.00,WUHU21623XXSP,2013-08-31 04:31:00,
2013-08-31 00:36:00,70.9,64.2,29.80,SE,135,0.0,0.0,79,0.00,,,0.00,WUHU21623XXSP,2013-08-31 04:36:00,
2013-08-31 00:41:00,70.7,64.0,29.79,ENE,67,0.0,0.0,79,0.00,,,0.00,WUHU21623XXSP,2013-08-31 04:41:00,
2013-08-31 00:46:00,70.5,64.1,29.79,ENE,67,0.0,0.0,80,0.00,,,0.00,WUHU21623XXSP,2013-08-31 04:46:00,
2013-08-31 00:51:00,70.5,64.1,29.79,ENE,67,0.0,0.0,80,0.00,,,0.00,WUHU21623XXSP,2013-08-31 04:51:00,
2013-08-31 00:56:00,70.3,63.9,29.79,ENE,67,0.0,0.0,80,0.00,,,0.00,WUHU21623XXSP,2013-08-31 04:56:00,
2013-08-31 01:01:00,70.3,63.9,29.79,ESE,112,0.0,0.0,80,0.00,,,0.00,WUHU21623XXSP,2013-08-31 05:01:00,
2013-08-31 01:06:00,70.3,63.9,29.79,ESE,112,0.0,0.0,80,0.00,,,0.00,WUHU21623XXSP,2013-08-31 05:06:00,
2013-08-31 01:11:00,70.3,63.9,29.79,South,180,0.0,0.0,80,0.00,,,0.00,WUHU21623XXSP,2013-08-31 05:11:00,
2013-08-31 01:16:00,70.3,63.9,29.79,SE,135,0.0,0.0,80,0.00,,,0.00,WUHU21623XXSP,2013-08-31 05:16:00,
2013-08-31 01:21:00,70.3,64.3,29.78,SE,135,0.0,0.0,81,0.00,,,0.00,WUHU21623XXSP,2013-08-31 05:21:00,
2013-08-31 01:26:00,70.2,64.2,29.79,SE,135,0.0,0.0,81,0.00,,,0.00,WUHU21623XXSP,2013-08-31 05:26:00,
2013-08-31 01:31:00,70.2,64.2,29.78,SE,135,0.0,0.0,81,0.00,,,0.00,WUHU21623XXSP,2013-08-31 05:31:00,
2013-08-31 01:36:00,70.2,64.2,29.78,SE,135,0.0,0.0,81,0.00,,,0.00,WUHU21623XXSP,2013-08-31 05:36:00,
2013-08-31 01:41:00,70.2,64.2,29.78,ESE,112,0.0,0.0,81,0.00,,,0.00,WUHU21623XXSP,2013-08-31 05:41:00,
2013-08-31 01:46:00,70.2,64.2,29.78,ESE,112,0.0,0.0,81,0.00,,,0.00,WUHU21623XXSP,2013-08-31 05:46:00,
2013-08-31 01:51:00,70.2,64.2,29.78,SE,135,0.0,0.0,81,0.00,,,0.00,WUHU21623XXSP,2013-08-31 05:51:00,
2013-08-31 01:56:00,70.2,64.2,29.78,SE,135,0.0,0.0,81,0.00,,,0.00,WUHU21623XXSP,2013-08-31 05:56:00,
2013-08-31 02:01:00,70.3,64.3,29.78,ENE,67,0.0,0.0,81,0.00,,,0.00,WUHU21623XXSP,2013-08-31 06:01:00,
2013-08-31 02:06:00,70.3,64.3,29.78,East,90,0.0,0.0,81,0.00,,,0.00,WUHU21623XXSP,2013-08-31 06:06:00,
2013-08-31 02:11:00,70.3,64.3,29.78,SSE,157,0.0,0.0,81,0.00,,,0.00,WUHU21623XXSP,2013-08-31 06:11:00,
2013-08-31 02:16:00,70.3,64.3,29.78,South,180,0.0,0.0,81,0.00,,,0.00,WUHU21623XXSP,2013-08-31 06:16:00,
2013-08-31 02:21:00,70.3,64.3,29.78,SSW,202,0.0,0.0,81,0.00,,,0.00,WUHU21623XXSP,2013-08-31 06:21:00,
2013-08-31 02:26:00,70.5,64.1,29.76,SSW,202,0.0,0.0,80,0.00,,,0.00,WUHU21623XXSP,2013-08-31 06:26:00,
2013-08-31 02:31:00,70.5,64.1,29.76,South,180,0.0,0.0,80,0.00,,,0.00,WUHU21623XXSP,2013-08-31 06:31:00,
2013-08-31 02:36:00,70.7,64.3,29.77,West,270,0.7,3.8,80,0.00,,,0.00,WUHU21623XXSP,2013-08-31 06:36:00,
2013-08-31 02:41:00,70.9,64.5,29.77,SW,225,0.0,3.8,80,0.00,,,0.00,WUHU21623XXSP,2013-08-31 06:41:00,
2013-08-31 02:46:00,71.1,64.7,29.77,SSE,157,0.0,0.0,80,0.00,,,0.00,WUHU21623XXSP,2013-08-31 06:46:00,
2013-08-31 02:51:00,71.2,64.8,29.77,SSW,202,0.0,0.0,80,0.00,,,0.00,WUHU21623XXSP,2013-08-31 06:51:00,
2013-08-31 02:56:00,71.4,65.0,29.77,NNW,337,0.0,0.0,80,0.00,,,0.00,WUHU21623XXSP,2013-08-31 06:56:00,
2013-08-31 03:01:00,71.4,64.6,29.77,SSW,202,0.0,0.0,79,0.00,,,0.00,WUHU21623XXSP,2013-08-31 07:01:00,
2013-08-31 03:06:00,71.8,65.0,29.77,SSE,157,0.0,0.0,79,0.00,,,0.00,WUHU21623XXSP,2013-08-31 07:06:00,
2013-08-31 03:11:00,72.0,65.2,29.76,SSE,157,0.0,0.0,79,0.00,,,0.00,WUHU21623XXSP,2013-08-31 07:11:00,
2013-08-31 03:16:00,72.0,65.2,29.76,SSW,202,0.0,0.0,79,0.00,,,0.00,WUHU21623XXSP,2013-08-31 07:16:00,
2013-08-31 03:21:00,72.1,65.3,29.77,SSE,157,0.0,0.0,79,0.00,,,0.00,WUHU21623XXSP,2013-08-31 07:21:00,
2013-08-31 03:26:00,72.0,65.2,29.76,SW,225,0.0,0.0,79,0.00,,,0.00,WUHU21623XXSP,2013-08-31 07:26:00,
2013-08-31 03:31:00,71.8,65.0,29.75,SSW,202,0.0,0.0,79,0.00,,,0.00,WUHU21623XXSP,2013-08-31 07:31:00,
2013-08-31 03:36:00,71.8,65.0,29.76,West,270,0.0,0.0,79,0.00,,,0.00,WUHU21623XXSP,2013-08-31 07:36:00,
2013-08-31 03:41:00,71.6,64.8,29.76,SW,225,5.4,5.4,79,0.00,,,0.00,WUHU21623XXSP,2013-08-31 07:41:00,
2013-08-31 03:46:00,71.8,65.0,29.75,SSW,202,0.0,5.4,79,0.00,,,0.00,WUHU21623XXSP,2013-08-31 07:46:00,
2013-08-31 03:51:00,71.8,65.0,29.75,SW,225,0.0,3.6,79,0.00,,,0.00,WUHU21623XXSP,2013-08-31 07:51:00,
2013-08-31 03:56:00,71.8,65.0,29.75,WSW,247,0.0,0.0,79,0.00,,,0.00,WUHU21623XXSP,2013-08-31 07:56:00,
2013-08-31 04:01:00,71.4,64.6,29.75,NE,45,0.0,0.0,79,0.00,,,0.00,WUHU21623XXSP,2013-08-31 08:01:00,
2013-08-31 04:06:00,70.9,64.5,29.76,NE,45,0.0,0.0,80,0.00,,,0.00,WUHU21623XXSP,2013-08-31 08:06:00,
2013-08-31 04:07:00,70.9,64.9,29.76,NE,45,0.0,0.0,81,0.00,,,0.00,WUHU21623XXSP,2013-08-31 08:07:00,
2013-08-31 04:23:00,70.0,64.6,29.75,SE,135,0.0,0.0,83,0.02,,,0.02,WUHU21623XXSP,2013-08-31 08:23:00,
2013-08-31 04:24:00,69.8,64.5,29.76,SSE,157,0.0,0.0,83,0.02,,,0.02,WUHU21623XXSP,2013-08-31 08:24:00,
2013-08-31 04:26:00,69.8,64.5,29.75,ESE,112,0.0,0.0,83,0.02,,,0.02,WUHU21623XXSP,2013-08-31 08:26:00,
2013-08-31 04:27:00,69.6,64.3,29.75,NW,315,0.0,0.0,83,0.02,,,0.02,WUHU21623XXSP,2013-08-31 08:27:00,
2013-08-31 04:35:00,69.6,64.6,29.76,NE,45,0.0,0.0,84,0.04,,,0.04,WUHU21623XXSP,2013-08-31 08:35:00,
2013-08-31 04:37:00,69.6,64.6,29.75,ENE,67,0.0,0.0,84,0.04,,,0.04,WUHU21623XXSP,2013-08-31 08:37:00,
2013-08-31 04:38:00,69.6,64.6,29.76,ENE,67,0.0,0.0,84,0.04,,,0.04,WUHU21623XXSP,2013-08-31 08:38:00,
2013-08-31 04:40:00,69.4,64.4,29.76,NE,45,0.0,0.0,84,0.04,,,0.04,WUHU21623XXSP,2013-08-31 08:40:00,
2013-08-31 04:47:00,69.4,64.4,29.75,SE,135,0.0,0.0,84,0.04,,,0.04,WUHU21623XXSP,2013-08-31 08:47:00,
2013-08-31 04:49:00,69.4,64.4,29.75,ESE,112,0.0,0.0,84,0.04,,,0.04,WUHU21623XXSP,2013-08-31 08:49:00,
2013-08-31 04:50:00,69.4,64.4,29.76,SW,225,0.0,0.0,84,0.04,,,0.04,WUHU21623XXSP,2013-08-31 08:50:00,
2013-08-31 04:52:00,69.4,64.7,29.76,SW,225,0.0,0.0,85,0.04,,,0.04,WUHU21623XXSP,2013-08-31 08:52:00,
2013-08-31 04:59:00,69.1,64.4,29.77,SW,225,0.0,0.0,85,0.04,,,0.04,WUHU21623XXSP,2013-08-31 08:59:00,
2013-08-31 05:01:00,69.1,64.4,29.77,SW,225,0.0,0.0,85,0.04,,,0.04,WUHU21623XXSP,2013-08-31 09:01:00,
2013-08-31 05:03:00,69.1,64.4,29.77,SW,225,0.0,0.0,85,0.04,,,0.04,WUHU21623XXSP,2013-08-31 09:03:00,
2013-08-31 05:04:00,69.1,64.4,29.77,SW,225,0.0,0.0,85,0.04,,,0.04,WUHU21623XXSP,2013-08-31 09:04:00,
2013-08-31 05:12:00,68.9,64.2,29.77,South,180,0.0,0.0,85,0.02,,,0.04,WUHU21623XXSP,2013-08-31 09:12:00,
2013-08-31 05:13:00,68.9,64.2,29.77,South,180,0.0,0.0,85,0.02,,,0.04,WUHU21623XXSP,2013-08-31 09:13:00,
2013-08-31 05:15:00,68.9,64.2,29.77,SSE,157,0.0,0.0,85,0.02,,,0.04,WUHU21623XXSP,2013-08-31 09:15:00,
2013-08-31 05:16:00,68.9,64.2,29.77,South,180,0.0,0.0,85,0.02,,,0.04,WUHU21623XXSP,2013-08-31 09:16:00,
2013-08-31 05:24:00,68.7,64.0,29.77,SSW,202,0.0,0.0,85,0.02,,,0.04,WUHU21623XXSP,2013-08-31 09:24:00,
2013-08-31 05:26:00,68.7,64.0,29.77,SE,135,0.0,0.0,85,0.02,,,0.04,WUHU21623XXSP,2013-08-31 09:26:00,
2013-08-31 05:37:00,68.7,64.4,29.77,SSE,157,0.0,0.0,86,0.00,,,0.04,WUHU21623XXSP,2013-08-31 09:37:00,
2013-08-31 05:42:00,68.7,64.4,29.77,SSE,157,0.0,0.0,86,0.00,,,0.04,WUHU21623XXSP,2013-08-31 09:42:00,
2013-08-31 05:47:00,68.7,64.4,29.77,SSE,157,0.0,0.0,86,0.00,,,0.04,WUHU21623XXSP,2013-08-31 09:47:00,
2013-08-31 05:52:00,68.7,64.4,29.77,SSE,157,0.0,0.0,86,0.00,,,0.04,WUHU21623XXSP,2013-08-31 09:52:00,
2013-08-31 05:57:00,68.7,64.4,29.77,SSE,157,0.0,0.0,86,0.00,,,0.04,WUHU21623XXSP,2013-08-31 09:57:00,
2013-08-31 06:02:00,68.9,64.6,29.77,SE,135,0.0,0.0,86,0.00,,,0.04,WUHU21623XXSP,2013-08-31 10:02:00,
2013-08-31 06:07:00,68.9,64.9,29.77,SW,225,0.0,0.0,87,0.00,,,0.04,WUHU21623XXSP,2013-08-31 10:07:00,
2013-08-31 06:12:00,68.9,64.9,29.77,South,180,0.0,0.0,87,0.00,,,0.04,WUHU21623XXSP,2013-08-31 10:12:00,
2013-08-31 06:17:00,69.1,65.1,29.77,SSW,202,0.0,0.0,87,0.00,,,0.04,WUHU21623XXSP,2013-08-31 10:17:00,
2013-08-31 06:22:00,69.1,65.1,29.77,South,180,0.0,0.0,87,0.00,,,0.04,WUHU21623XXSP,2013-08-31 10:22:00,
2013-08-31 06:27:00,69.3,65.3,29.78,SE,135,0.0,0.0,87,0.00,,,0.04,WUHU21623XXSP,2013-08-31 10:27:00,
2013-08-31 06:32:00,69.4,65.4,29.78,SSW,202,0.0,0.0,87,0.00,,,0.04,WUHU21623XXSP,2013-08-31 10:32:00,
2013-08-31 06:37:00,69.6,65.6,29.77,West,270,0.0,0.0,87,0.00,,,0.04,WUHU21623XXSP,2013-08-31 10:37:00,
2013-08-31 06:42:00,69.6,65.6,29.77,SSE,157,0.0,0.0,87,0.00,,,0.04,WUHU21623XXSP,2013-08-31 10:42:00,
2013-08-31 06:47:00,69.8,65.8,29.77,SSW,202,0.0,0.0,87,0.00,,,0.04,WUHU21623XXSP,2013-08-31 10:47:00,
2013-08-31 06:52:00,70.0,66.0,29.77,SW,225,0.0,0.0,87,0.00,,,0.04,WUHU21623XXSP,2013-08-31 10:52:00,
2013-08-31 06:57:00,70.0,66.0,29.77,SE,135,0.0,0.0,87,0.00,,,0.04,WUHU21623XXSP,2013-08-31 10:57:00,
2013-08-31 07:02:00,70.2,66.2,29.77,South,180,0.0,0.0,87,0.00,,,0.04,WUHU21623XXSP,2013-08-31 11:02:00,
2013-08-31 07:07:00,70.3,66.3,29.77,SSE,157,0.0,0.0,87,0.00,,,0.04,WUHU21623XXSP,2013-08-31 11:07:00,
2013-08-31 07:12:00,70.3,65.9,29.77,South,180,0.0,0.0,86,0.00,,,0.04,WUHU21623XXSP,2013-08-31 11:12:00,
2013-08-31 07:17:00,70.3,65.9,29.78,SSE,157,0.0,0.0,86,0.00,,,0.04,WUHU21623XXSP,2013-08-31 11:17:00,
2013-08-31 07:22:00,70.3,65.9,29.78,South,180,0.0,0.0,86,0.00,,,0.04,WUHU21623XXSP,2013-08-31 11:22:00,
2013-08-31 07:27:00,70.3,65.9,29.78,SSE,157,0.0,0.0,86,0.00,,,0.04,WUHU21623XXSP,2013-08-31 11:27:00,
2013-08-31 07:32:00,70.5,66.1,29.78,South,180,0.0,0.0,86,0.00,,,0.04,WUHU21623XXSP,2013-08-31 11:32:00,
2013-08-31 07:37:00,70.5,66.1,29.78,SSE,157,0.0,0.0,86,0.00,,,0.04,WUHU21623XXSP,2013-08-31 11:37:00,
2013-08-31 07:42:00,70.5,66.1,29.77,SSE,157,0.0,0.0,86,0.00,,,0.04,WUHU21623XXSP,2013-08-31 11:42:00,
2013-08-31 07:47:00,70.7,66.3,29.78,SSE,157,0.0,0.0,86,0.00,,,0.04,WUHU21623XXSP,2013-08-31 11:47:00,
2013-08-31 07:52:00,70.7,66.3,29.78,SSE,157,0.0,0.0,86,0.00,,,0.04,WUHU21623XXSP,2013-08-31 11:52:00,
2013-08-31 07:57:00,70.7,66.3,29.78,SSE,157,0.0,0.0,86,0.00,,,0.04,WUHU21623XXSP,2013-08-31 11:57:00,
2013-08-31 08:02:00,70.7,66.0,29.78,SSE,157,0.0,0.0,85,0.00,,,0.04,WUHU21623XXSP,2013-08-31 12:02:00,
2013-08-31 08:07:00,70.9,66.2,29.78,South,180,0.0,0.0,85,0.00,,,0.04,WUHU21623XXSP,2013-08-31 12:07:00,
2013-08-31 08:12:00,70.9,66.2,29.78,SSE,157,0.0,0.0,85,0.00,,,0.04,WUHU21623XXSP,2013-08-31 12:12:00,
2013-08-31 08:17:00,71.2,66.5,29.78,SSE,157,0.0,0.0,85,0.00,,,0.04,WUHU21623XXSP,2013-08-31 12:17:00,
2013-08-31 08:22:00,71.2,66.5,29.79,South,180,0.0,0.0,85,0.00,,,0.04,WUHU21623XXSP,2013-08-31 12:22:00,
2013-08-31 08:27:00,71.4,66.7,29.79,SSE,157,0.0,0.0,85,0.00,,,0.04,WUHU21623XXSP,2013-08-31 12:27:00,
2013-08-31 08:32:00,71.8,67.1,29.79,South,180,0.0,0.0,85,0.00,,,0.04,WUHU21623XXSP,2013-08-31 12:32:00,
2013-08-31 08:37:00,72.0,67.3,29.79,SSE,157,0.0,0.0,85,0.00,,,0.04,WUHU21623XXSP,2013-08-31 12:37:00,
2013-08-31 08:42:00,72.1,67.0,29.79,SSW,202,0.0,0.0,84,0.00,,,0.04,WUHU21623XXSP,2013-08-31 12:42:00,
2013-08-31 08:47:00,72.3,67.2,29.79,South,180,0.0,0.0,84,0.00,,,0.04,WUHU21623XXSP,2013-08-31 12:47:00,
2013-08-31 08:52:00,72.5,67.4,29.79,SSE,157,0.0,0.0,84,0.00,,,0.04,WUHU21623XXSP,2013-08-31 12:52:00,
2013-08-31 08:57:00,72.9,67.8,29.79,SSE,157,0.0,0.0,84,0.00,,,0.04,WUHU21623XXSP,2013-08-31 12:57:00,
2013-08-31 09:02:00,73.0,67.6,29.79,SSW,202,0.0,0.0,83,0.00,,,0.04,WUHU21623XXSP,2013-08-31 13:02:00,
2013-08-31 09:07:00,73.0,67.6,29.79,South,180,0.0,0.0,83,0.00,,,0.04,WUHU21623XXSP,2013-08-31 13:07:00,
2013-08-31 09:12:00,72.9,67.5,29.80,SSW,202,0.0,0.0,83,0.00,,,0.04,WUHU21623XXSP,2013-08-31 13:12:00,
2013-08-31 09:17:00,73.2,67.8,29.80,South,180,0.0,0.0,83,0.00,,,0.04,WUHU21623XXSP,2013-08-31 13:17:00,
2013-08-31 09:22:00,73.9,68.1,29.79,SE,135,0.0,0.0,82,0.00,,,0.04,WUHU21623XXSP,2013-08-31 13:22:00,
2013-08-31 09:27:00,74.5,68.7,29.79,SSW,202,0.0,0.0,82,0.00,,,0.04,WUHU21623XXSP,2013-08-31 13:27:00,
2013-08-31 09:32:00,74.7,68.6,29.80,West,270,0.0,0.0,81,0.00,,,0.04,WUHU21623XXSP,2013-08-31 13:32:00,
2013-08-31 09:37:00,74.8,68.7,29.80,SSW,202,0.0,0.0,81,0.00,,,0.04,WUHU21623XXSP,2013-08-31 13:37:00,
2013-08-31 09:42:00,74.8,68.3,29.80,SW,225,0.0,0.0,80,0.00,,,0.04,WUHU21623XXSP,2013-08-31 13:42:00,
2013-08-31 09:47:00,75.2,68.7,29.80,SSW,202,0.0,0.0,80,0.00,,,0.04,WUHU21623XXSP,2013-08-31 13:47:00,
2013-08-31 09:52:00,75.7,69.2,29.80,SSW,202,0.0,0.0,80,0.00,,,0.04,WUHU21623XXSP,2013-08-31 13:52:00,
2013-08-31 09:57:00,76.3,69.4,29.80,SW,225,0.0,0.0,79,0.00,,,0.04,WUHU21623XXSP,2013-08-31 13:57:00,
2013-08-31 10:02:00,76.8,69.9,29.80,SW,225,0.0,0.0,79,0.00,,,0.04,WUHU21623XXSP,2013-08-31 14:02:00,
2013-08-31 10:07:00,76.8,69.5,29.80,WSW,247,0.0,0.0,78,0.00,,,0.04,WUHU21623XXSP,2013-08-31 14:07:00,
2013-08-31 10:12:00,76.8,69.2,29.80,SW,225,0.0,0.0,77,0.00,,,0.04,WUHU21623XXSP,2013-08-31 14:12:00,
2013-08-31 10:17:00,77.2,69.9,29.80,SSE,157,0.0,0.0,78,0.00,,,0.04,WUHU21623XXSP,2013-08-31 14:17:00,
2013-08-31 10:22:00,77.7,70.1,29.80,South,180,0.0,0.0,77,0.00,,,0.04,WUHU21623XXSP,2013-08-31 14:22:00,
2013-08-31 10:27:00,78.1,70.1,29.80,SSW,202,0.0,0.0,76,0.00,,,0.04,WUHU21623XXSP,2013-08-31 14:27:00,
2013-08-31 10:32:00,78.1,70.1,29.80,SSE,157,0.0,0.0,76,0.00,,,0.04,WUHU21623XXSP,2013-08-31 14:32:00,
2013-08-31 10:37:00,78.6,70.6,29.79,South,180,0.0,0.0,76,0.00,,,0.04,WUHU21623XXSP,2013-08-31 14:37:00,
2013-08-31 10:42:00,79.2,71.1,29.80,SSW,202,0.0,0.0,76,0.00,,,0.04,WUHU21623XXSP,2013-08-31 14:42:00,
2013-08-31 10:47:00,80.1,71.6,29.80,SSE,157,0.0,0.0,75,0.00,,,0.04,WUHU21623XXSP,2013-08-31 14:47:00,
2013-08-31 10:52:00,80.4,71.5,29.80,SW,225,0.0,0.0,74,0.00,,,0.04,WUHU21623XXSP,2013-08-31 14:52:00,
2013-08-31 10:57:00,80.2,71.0,29.80,SSW,202,0.0,0.0,73,0.00,,,0.04,WUHU21623XXSP,2013-08-31 14:57:00,
2013-08-31 11:02:00,79.7,70.5,29.80,SSW,202,0.0,0.0,73,0.00,,,0.04,WUHU21623XXSP,2013-08-31 15:02:00,
2013-08-31 11:07:00,79.3,70.1,29.80,SSW,202,0.0,0.0,73,0.00,,,0.04,WUHU21623XXSP,2013-08-31 15:07:00,
2013-08-31 11:12:00,79.0,69.8,29.80,SW,225,0.0,0.0,73,0.00,,,0.04,WUHU21623XXSP,2013-08-31 15:12:00,
2013-08-31 11:17:00,79.0,70.2,29.80,SW,225,0.0,0.0,74,0.00,,,0.04,WUHU21623XXSP,2013-08-31 15:17:00,
2013-08-31 11:22:00,79.3,70.1,29.80,SW,225,0.0,0.0,73,0.00,,,0.04,WUHU21623XXSP,2013-08-31 15:22:00,
2013-08-31 11:27:00,79.5,70.3,29.80,WSW,247,0.0,0.0,73,0.00,,,0.04,WUHU21623XXSP,2013-08-31 15:27:00,
2013-08-31 11:32:00,79.7,70.5,29.80,SSW,202,0.0,0.0,73,0.00,,,0.04,WUHU21623XXSP,2013-08-31 15:32:00,
2013-08-31 11:37:00,80.2,70.6,29.80,SW,225,0.0,0.0,72,0.00,,,0.04,WUHU21623XXSP,2013-08-31 15:37:00,
2013-08-31 11:42:00,80.4,70.8,29.80,SW,225,0.0,0.0,72,0.00,,,0.04,WUHU21623XXSP,2013-08-31 15:42:00,
2013-08-31 11:47:00,80.4,70.8,29.80,SW,225,0.0,0.0,72,0.00,,,0.04,WUHU21623XXSP,2013-08-31 15:47:00,
2013-08-31 11:52:00,80.6,70.9,29.80,SW,225,0.0,0.0,72,0.00,,,0.04,WUHU21623XXSP,2013-08-31 15:52:00,
2013-08-31 11:57:00,81.0,71.3,29.80,SW,225,0.0,0.0,72,0.00,,,0.04,WUHU21623XXSP,2013-08-31 15:57:00,
2013-08-31 12:02:00,81.3,70.8,29.80,NNE,22,0.0,0.0,70,0.00,,,0.04,WUHU21623XXSP,2013-08-31 16:02:00,
2013-08-31 12:07:00,81.3,70.4,29.80,WSW,247,0.0,0.0,69,0.00,,,0.04,WUHU21623XXSP,2013-08-31 16:07:00,
2013-08-31 12:12:00,81.0,70.5,29.79,WSW,247,0.0,0.0,70,0.00,,,0.04,WUHU21623XXSP,2013-08-31 16:12:00,
2013-08-31 12:17:00,80.8,70.3,29.79,SE,135,0.0,0.0,70,0.00,,,0.04,WUHU21623XXSP,2013-08-31 16:17:00,
2013-08-31 12:22:00,80.6,70.5,29.79,SSW,202,0.0,0.0,71,0.00,,,0.04,WUHU21623XXSP,2013-08-31 16:22:00,
2013-08-31 12:27:00,80.8,70.7,29.79,SSW,202,0.0,0.0,71,0.00,,,0.04,WUHU21623XXSP,2013-08-31 16:27:00,
2013-08-31 12:32:00,81.0,70.9,29.79,SSW,202,0.0,0.0,71,0.00,,,0.04,WUHU21623XXSP,2013-08-31 16:32:00,
2013-08-31 12:37:00,80.8,70.7,29.79,SW,225,0.0,0.0,71,0.00,,,0.04,WUHU21623XXSP,2013-08-31 16:37:00,
2013-08-31 12:42:00,80.8,70.7,29.79,North,0,0.0,0.0,71,0.00,,,0.04,WUHU21623XXSP,2013-08-31 16:42:00,
2013-08-31 12:47:00,80.4,70.4,29.79,NNW,337,0.0,0.0,71,0.00,,,0.04,WUHU21623XXSP,2013-08-31 16:47:00,
2013-08-31 12:52:00,80.2,69.8,29.79,WNW,292,0.0,0.0,70,0.00,,,0.04,WUHU21623XXSP,2013-08-31 16:52:00,
2013-08-31 12:57:00,80.1,70.1,29.79,SSW,202,0.0,0.0,71,0.00,,,0.04,WUHU21623XXSP,2013-08-31 16:57:00,
2013-08-31 13:02:00,80.4,70.4,29.79,WSW,247,0.0,0.0,71,0.00,,,0.04,WUHU21623XXSP,2013-08-31 17:02:00,
2013-08-31 13:07:00,81.3,71.6,29.79,WSW,247,0.2,0.2,72,0.00,,,0.04,WUHU21623XXSP,2013-08-31 17:07:00,
2013-08-31 13:12:00,82.2,71.7,29.79,NW,315,0.0,0.2,70,0.00,,,0.04,WUHU21623XXSP,2013-08-31 17:12:00,
2013-08-31 13:17:00,83.3,71.9,29.79,SSW,202,0.0,0.0,68,0.00,,,0.04,WUHU21623XXSP,2013-08-31 17:17:00,
2013-08-31 13:22:00,83.8,72.4,29.78,SSW,202,0.0,0.0,68,0.00,,,0.04,WUHU21623XXSP,2013-08-31 17:22:00,
2013-08-31 13:27:00,84.0,72.1,29.78,South,180,0.0,0.0,67,0.00,,,0.04,WUHU21623XXSP,2013-08-31 17:27:00,
2013-08-31 13:32:00,84.0,72.1,29.78,North,0,0.0,0.0,67,0.00,,,0.04,WUHU21623XXSP,2013-08-31 17:32:00,
2013-08-31 13:37:00,84.0,72.1,29.79,SSW,202,0.0,0.0,67,0.00,,,0.04,WUHU21623XXSP,2013-08-31 17:37:00,
2013-08-31 13:42:00,84.0,72.1,29.78,SSW,202,5.1,5.6,67,0.00,,,0.04,WUHU21623XXSP,2013-08-31 17:42:00,
2013-08-31 13:47:00,84.0,72.1,29.78,WSW,247,0.0,5.6,67,0.00,,,0.04,WUHU21623XXSP,2013-08-31 17:47:00,
2013-08-31 13:52:00,83.7,71.8,29.78,NE,45,0.0,0.0,67,0.00,,,0.04,WUHU21623XXSP,2013-08-31 17:52:00,
2013-08-31 13:57:00,83.3,71.5,29.78,SSW,202,2.2,2.2,67,0.00,,,0.04,WUHU21623XXSP,2013-08-31 17:57:00,
2013-08-31 14:02:00,83.3,71.5,29.78,East,90,0.0,2.2,67,0.00,,,0.04,WUHU21623XXSP,2013-08-31 18:02:00,
2013-08-31 14:07:00,83.3,71.9,29.78,NE,45,0.0,0.0,68,0.00,,,0.04,WUHU21623XXSP,2013-08-31 18:07:00,
2013-08-31 14:12:00,83.5,72.1,29.77,NNE,22,0.0,1.3,68,0.00,,,0.04,WUHU21623XXSP,2013-08-31 18:12:00,
2013-08-31 14:17:00,83.7,71.8,29.77,West,270,0.0,1.3,67,0.00,,,0.04,WUHU21623XXSP,2013-08-31 18:17:00,
2013-08-31 14:22:00,83.8,71.9,29.77,SSW,202,0.0,0.0,67,0.00,,,0.04,WUHU21623XXSP,2013-08-31 18:22:00,
2013-08-31 14:27:00,83.1,70.8,29.77,SW,214,3.9,6.3,66,0.00,,,0.04,WUHU21623XXSP,2013-08-31 18:27:00,
2013-08-31 14:32:00,82.9,70.6,29.77,NW,315,0.4,6.3,66,0.00,,,0.04,WUHU21623XXSP,2013-08-31 18:32:00,
2013-08-31 14:37:00,83.1,71.3,29.77,NE,45,0.0,0.4,67,0.00,,,0.04,WUHU21623XXSP,2013-08-31 18:37:00,
2013-08-31 14:42:00,83.3,71.5,29.77,West,270,0.0,0.0,67,0.00,,,0.04,WUHU21623XXSP,2013-08-31 18:42:00,
2013-08-31 14:47:00,82.8,70.5,29.77,NW,315,0.0,2.9,66,0.00,,,0.04,WUHU21623XXSP,2013-08-31 18:47:00,
2013-08-31 14:52:00,82.0,69.8,29.76,NNW,337,0.0,2.9,66,0.00,,,0.04,WUHU21623XXSP,2013-08-31 18:52:00,
2013-08-31 14:57:00,81.7,69.9,29.76,NE,45,0.0,0.0,67,0.00,,,0.04,WUHU21623XXSP,2013-08-31 18:57:00,
2013-08-31 15:02:00,81.7,70.8,29.77,NE,45,0.0,0.0,69,0.00,,,0.04,WUHU21623XXSP,2013-08-31 19:02:00,
2013-08-31 15:07:00,81.9,70.5,29.77,NNW,337,0.0,0.0,68,0.00,,,0.04,WUHU21623XXSP,2013-08-31 19:07:00,
2013-08-31 15:12:00,81.7,70.4,29.77,North,0,0.0,0.0,68,0.00,,,0.04,WUHU21623XXSP,2013-08-31 19:12:00,
2013-08-31 15:17:00,81.5,70.2,29.77,North,0,0.0,0.0,68,0.00,,,0.04,WUHU21623XXSP,2013-08-31 19:17:00,
2013-08-31 15:22:00,81.5,70.6,29.77,NE,45,0.0,0.0,69,0.00,,,0.04,WUHU21623XXSP,2013-08-31 19:22:00,
2013-08-31 15:27:00,81.7,70.4,29.77,North,0,0.0,0.0,68,0.00,,,0.04,WUHU21623XXSP,2013-08-31 19:27:00,
2013-08-31 15:32:00,81.5,70.2,29.76,North,0,0.0,0.0,68,0.00,,,0.04,WUHU21623XXSP,2013-08-31 19:32:00,
2013-08-31 15:37:00,81.3,70.4,29.76,SE,135,0.0,0.0,69,0.00,,,0.04,WUHU21623XXSP,2013-08-31 19:37:00,
2013-08-31 15:42:00,81.7,70.4,29.76,NNE,22,0.0,0.0,68,0.00,,,0.04,WUHU21623XXSP,2013-08-31 19:42:00,
2013-08-31 15:47:00,81.7,70.8,29.76,NE,45,0.0,0.0,69,0.00,,,0.04,WUHU21623XXSP,2013-08-31 19:47:00,
2013-08-31 15:52:00,81.3,70.4,29.77,NE,45,0.0,0.0,69,0.00,,,0.04,WUHU21623XXSP,2013-08-31 19:52:00,
2013-08-31 15:57:00,81.5,70.6,29.76,NE,45,0.0,0.0,69,0.00,,,0.04,WUHU21623XXSP,2013-08-31 19:57:00,
2013-08-31 16:02:00,81.0,70.1,29.76,NE,45,0.0,0.0,69,0.00,,,0.04,WUHU21623XXSP,2013-08-31 20:02:00,
2013-08-31 16:07:00,81.1,70.6,29.77,SE,135,0.0,0.0,70,0.00,,,0.04,WUHU21623XXSP,2013-08-31 20:07:00,
2013-08-31 16:12:00,81.5,71.0,29.78,NW,315,0.0,0.0,70,0.00,,,0.04,WUHU21623XXSP,2013-08-31 20:12:00,
2013-08-31 16:17:00,81.3,70.4,29.78,NNE,22,0.0,0.0,69,0.00,,,0.04,WUHU21623XXSP,2013-08-31 20:17:00,
2013-08-31 16:22:00,81.5,70.6,29.78,NE,45,0.0,0.0,69,0.00,,,0.04,WUHU21623XXSP,2013-08-31 20:22:00,
2013-08-31 16:27:00,81.3,70.4,29.78,NNE,22,0.0,0.0,69,0.00,,,0.04,WUHU21623XXSP,2013-08-31 20:27:00,
2013-08-31 16:32:00,81.0,70.1,29.78,NNE,22,0.0,0.0,69,0.00,,,0.04,WUHU21623XXSP,2013-08-31 20:32:00,
2013-08-31 16:37:00,80.6,70.1,29.77,NE,45,0.0,0.0,70,0.00,,,0.04,WUHU21623XXSP,2013-08-31 20:37:00,
2013-08-31 16:42:00,80.4,69.9,29.78,NNE,22,0.0,0.0,70,0.00,,,0.04,WUHU21623XXSP,2013-08-31 20:42:00,
2013-08-31 16:47:00,80.2,69.8,29.78,NNE,22,0.0,0.0,70,0.00,,,0.04,WUHU21623XXSP,2013-08-31 20:47:00,
2013-08-31 16:52:00,79.9,69.9,29.78,NNW,337,0.0,0.0,71,0.00,,,0.04,WUHU21623XXSP,2013-08-31 20:52:00,
2013-08-31 16:57:00,79.7,69.7,29.78,North,0,0.0,0.0,71,0.00,,,0.04,WUHU21623XXSP,2013-08-31 20:57:00,
2013-08-31 17:02:00,79.7,69.7,29.78,North,0,0.0,0.0,71,0.00,,,0.04,WUHU21623XXSP,2013-08-31 21:02:00,
2013-08-31 17:07:00,79.9,69.9,29.78,NE,45,0.0,0.0,71,0.00,,,0.04,WUHU21623XXSP,2013-08-31 21:07:00,
2013-08-31 17:12:00,79.5,69.5,29.78,NNE,22,0.0,0.0,71,0.00,,,0.04,WUHU21623XXSP,2013-08-31 21:12:00,
2013-08-31 17:17:00,79.3,69.7,29.78,NW,315,0.0,0.0,72,0.00,,,0.04,WUHU21623XXSP,2013-08-31 21:17:00,
2013-08-31 17:22:00,79.3,69.7,29.78,NNE,22,0.0,0.0,72,0.00,,,0.04,WUHU21623XXSP,2013-08-31 21:22:00,
2013-08-31 17:27:00,79.2,69.6,29.78,NNW,337,0.0,0.0,72,0.00,,,0.04,WUHU21623XXSP,2013-08-31 21:27:00,
2013-08-31 17:32:00,79.0,69.4,29.79,NNW,337,0.0,0.0,72,0.00,,,0.04,WUHU21623XXSP,2013-08-31 21:32:00,
2013-08-31 17:37:00,79.0,69.4,29.79,North,0,0.0,0.0,72,0.00,,,0.04,WUHU21623XXSP,2013-08-31 21:37:00,
2013-08-31 17:42:00,79.0,69.4,29.80,NE,45,0.0,0.0,72,0.00,,,0.04,WUHU21623XXSP,2013-08-31 21:42:00,
2013-08-31 17:47:00,78.8,69.2,29.80,NNE,22,0.0,0.0,72,0.00,,,0.04,WUHU21623XXSP,2013-08-31 21:47:00,
2013-08-31 17:52:00,78.6,69.0,29.80,NNE,22,0.0,0.0,72,0.00,,,0.04,WUHU21623XXSP,2013-08-31 21:52:00,
2013-08-31 17:57:00,78.1,68.5,29.80,NNE,22,0.0,0.0,72,0.00,,,0.04,WUHU21623XXSP,2013-08-31 21:57:00,
2013-08-31 18:02:00,77.5,68.0,29.80,NNE,22,0.0,0.0,72,0.00,,,0.04,WUHU21623XXSP,2013-08-31 22:02:00,
2013-08-31 18:07:00,77.4,67.9,29.80,North,0,0.0,0.0,72,0.00,,,0.04,WUHU21623XXSP,2013-08-31 22:07:00,
2013-08-31 18:12:00,77.2,68.1,29.80,North,0,0.0,0.0,73,0.00,,,0.04,WUHU21623XXSP,2013-08-31 22:12:00,
2013-08-31 18:17:00,76.8,67.7,29.79,NE,45,0.0,0.0,73,0.00,,,0.04,WUHU21623XXSP,2013-08-31 22:17:00,
2013-08-31 18:22:00,76.5,67.4,29.80,North,0,0.0,0.0,73,0.00,,,0.04,WUHU21623XXSP,2013-08-31 22:22:00,
2013-08-31 18:27:00,76.3,67.6,29.79,NNE,22,0.0,0.0,74,0.00,,,0.04,WUHU21623XXSP,2013-08-31 22:27:00,
2013-08-31 18:32:00,75.9,67.2,29.79,NNE,22,0.0,0.0,74,0.00,,,0.04,WUHU21623XXSP,2013-08-31 22:32:00,
2013-08-31 18:37:00,75.7,67.0,29.79,NE,45,0.0,0.0,74,0.00,,,0.04,WUHU21623XXSP,2013-08-31 22:37:00,
2013-08-31 18:42:00,75.4,67.1,29.80,NE,45,0.0,0.0,75,0.00,,,0.04,WUHU21623XXSP,2013-08-31 22:42:00,
2013-08-31 18:47:00,75.0,66.7,29.80,NE,45,0.0,0.0,75,0.00,,,0.04,WUHU21623XXSP,2013-08-31 22:47:00,
2013-08-31 18:52:00,74.8,66.5,29.80,NNE,22,0.0,0.0,75,0.00,,,0.04,WUHU21623XXSP,2013-08-31 22:52:00,
2013-08-31 18:57:00,74.5,66.2,29.80,NNW,337,0.0,0.0,75,0.00,,,0.04,WUHU21623XXSP,2013-08-31 22:57:00,
2013-08-31 19:02:00,74.3,66.4,29.80,NNW,337,0.0,0.0,76,0.00,,,0.04,WUHU21623XXSP,2013-08-31 23:02:00,
2013-08-31 19:07:00,74.1,66.2,29.81,North,0,0.0,0.0,76,0.00,,,0.04,WUHU21623XXSP,2013-08-31 23:07:00,
2013-08-31 19:12:00,73.9,66.0,29.81,NE,45,0.0,0.0,76,0.00,,,0.04,WUHU21623XXSP,2013-08-31 23:12:00,
2013-08-31 19:17:00,73.8,66.3,29.82,ENE,67,0.0,0.0,77,0.00,,,0.04,WUHU21623XXSP,2013-08-31 23:17:00,
2013-08-31 19:22:00,73.6,66.1,29.82,ENE,67,0.0,0.0,77,0.00,,,0.04,WUHU21623XXSP,2013-08-31 23:22:00,
2013-08-31 19:27:00,73.4,65.9,29.82,ENE,67,0.0,0.0,77,0.00,,,0.04,WUHU21623XXSP,2013-08-31 23:27:00,
2013-08-31 19:32:00,73.2,65.7,29.82,ENE,67,0.0,0.0,77,0.00,,,0.04,WUHU21623XXSP,2013-08-31 23:32:00,
2013-08-31 19:37:00,73.0,65.5,29.82,ENE,67,0.0,0.0,77,0.00,,,0.04,WUHU21623XXSP,2013-08-31 23:37:00,
2013-08-31 19:42:00,72.5,65.0,29.82,ENE,67,0.0,0.0,77,0.00,,,0.04,WUHU21623XXSP,2013-08-31 23:42:00,
2013-08-31 19:47:00,72.1,65.0,29.82,NNE,22,0.0,0.0,78,0.00,,,0.04,WUHU21623XXSP,2013-08-31 23:47:00,
2013-08-31 19:52:00,71.8,64.7,29.82,NNE,22,0.0,0.0,78,0.00,,,0.04,WUHU21623XXSP,2013-08-31 23:52:00,
2013-08-31 19:57:00,71.4,64.3,29.82,NNE,22,0.0,0.0,78,0.00,,,0.04,WUHU21623XXSP,2013-08-31 23:57:00,
2013-08-31 20:02:00,71.4,64.6,29.82,NNE,22,0.0,0.0,79,0.00,,,0.04,WUHU21623XXSP,2013-09-01 00:02:00,
2013-08-31 20:07:00,71.4,64.6,29.82,NNE,22,0.0,0.0,79,0.00,,,0.04,WUHU21623XXSP,2013-09-01 00:07:00,
2013-08-31 20:12:00,71.2,64.5,29.82,NNE,22,0.0,0.0,79,0.00,,,0.04,WUHU21623XXSP,2013-09-01 00:12:00,
2013-08-31 20:17:00,71.2,64.5,29.82,NNE,22,0.0,0.0,79,0.00,,,0.04,WUHU21623XXSP,2013-09-01 00:17:00,
2013-08-31 20:22:00,71.2,64.5,29.82,NNE,22,0.0,0.0,79,0.00,,,0.04,WUHU21623XXSP,2013-09-01 00:22:00,
2013-08-31 20:27:00,71.1,64.4,29.82,NNE,22,0.0,0.0,79,0.00,,,0.04,WUHU21623XXSP,2013-09-01 00:27:00,
2013-08-31 20:32:00,70.9,64.5,29.83,NNE,22,0.0,0.0,80,0.00,,,0.04,WUHU21623XXSP,2013-09-01 00:32:00,
2013-08-31 20:37:00,70.7,64.3,29.81,NNE,22,0.0,0.0,80,0.00,,,0.04,WUHU21623XXSP,2013-09-01 00:37:00,
2013-08-31 20:42:00,70.5,64.1,29.82,NNE,22,0.0,0.0,80,0.00,,,0.04,WUHU21623XXSP,2013-09-01 00:42:00,
2013-08-31 20:47:00,70.3,63.9,29.82,NNE,22,0.0,0.0,80,0.00,,,0.04,WUHU21623XXSP,2013-09-01 00:47:00,
2013-08-31 20:52:00,70.0,63.6,29.82,NNE,22,0.0,0.0,80,0.00,,,0.04,WUHU21623XXSP,2013-09-01 00:52:00,
2013-08-31 20:57:00,69.6,63.6,29.82,NNE,22,0.0,0.0,81,0.00,,,0.04,WUHU21623XXSP,2013-09-01 00:57:00,
2013-08-31 21:02:00,69.4,63.4,29.83,NNE,22,0.0,0.0,81,0.00,,,0.04,WUHU21623XXSP,2013-09-01 01:02:00,
2013-08-31 21:07:00,69.1,63.1,29.84,NNE,22,0.0,0.0,81,0.00,,,0.04,WUHU21623XXSP,2013-09-01 01:07:00,
2013-08-31 21:12:00,68.9,62.9,29.84,NNE,22,0.0,0.0,81,0.00,,,0.04,WUHU21623XXSP,2013-09-01 01:12:00,
2013-08-31 21:17:00,68.5,62.5,29.85,NNE,22,0.0,0.0,81,0.00,,,0.04,WUHU21623XXSP,2013-09-01 01:17:00,
2013-08-31 21:22:00,68.5,62.5,29.85,NNE,22,0.0,0.0,81,0.00,,,0.04,WUHU21623XXSP,2013-09-01 01:22:00,
2013-08-31 21:27:00,68.4,62.7,29.86,NNE,22,0.0,0.0,82,0.00,,,0.04,WUHU21623XXSP,2013-09-01 01:27:00,
2013-08-31 21:32:00,68.4,62.7,29.86,NNE,22,0.0,0.0,82,0.00,,,0.04,WUHU21623XXSP,2013-09-01 01:32:00,
2013-08-31 21:37:00,68.4,63.1,29.86,NNE,22,0.0,0.0,83,0.00,,,0.04,WUHU21623XXSP,2013-09-01 01:37:00,
2013-08-31 21:42:00,68.5,63.2,29.86,NNE,22,0.0,0.0,83,0.00,,,0.04,WUHU21623XXSP,2013-09-01 01:42:00,
2013-08-31 21:47:00,68.5,63.2,29.86,NNE,22,0.0,0.0,83,0.00,,,0.04,WUHU21623XXSP,2013-09-01 01:47:00,
2013-08-31 21:52:00,68.7,63.4,29.87,NNE,22,0.0,0.0,83,0.00,,,0.04,WUHU21623XXSP,2013-09-01 01:52:00,
2013-08-31 21:57:00,68.7,63.4,29.86,NNE,22,0.0,0.0,83,0.00,,,0.04,WUHU21623XXSP,2013-09-01 01:57:00,
2013-08-31 22:02:00,68.7,63.4,29.86,NNE,22,0.0,0.0,83,0.00,,,0.04,WUHU21623XXSP,2013-09-01 02:02:00,
2013-08-31 22:07:00,68.9,63.6,29.86,NNE,22,0.0,0.0,83,0.00,,,0.04,WUHU21623XXSP,2013-09-01 02:07:00,
2013-08-31 22:12:00,68.9,63.6,29.86,NNE,22,0.0,0.0,83,0.00,,,0.04,WUHU21623XXSP,2013-09-01 02:12:00,
2013-08-31 22:17:00,68.9,63.9,29.86,NNE,22,0.0,0.0,84,0.00,,,0.04,WUHU21623XXSP,2013-09-01 02:17:00,
2013-08-31 22:21:00,68.7,63.7,29.86,NNE,22,0.0,0.0,84,0.00,,,0.04,WUHU21623XXSP,2013-09-01 02:21:00,
2013-08-31 22:26:00,68.7,63.7,29.86,NNE,22,0.0,0.0,84,0.00,,,0.04,WUHU21623XXSP,2013-09-01 02:26:00,
2013-08-31 22:31:00,68.5,63.5,29.86,NNE,22,0.0,0.0,84,0.00,,,0.04,WUHU21623XXSP,2013-09-01 02:31:00,
2013-08-31 22:36:00,68.4,63.4,29.86,NNE,22,0.0,0.0,84,0.00,,,0.04,WUHU21623XXSP,2013-09-01 02:36:00,
2013-08-31 22:41:00,68.2,63.2,29.86,NNE,22,0.0,0.0,84,0.00,,,0.04,WUHU21623XXSP,2013-09-01 02:41:00,
2013-08-31 22:46:00,68.2,63.2,29.86,NNE,22,0.0,0.0,84,0.00,,,0.04,WUHU21623XXSP,2013-09-01 02:46:00,
2013-08-31 22:51:00,68.0,63.0,29.86,NNE,22,0.0,0.0,84,0.00,,,0.04,WUHU21623XXSP,2013-09-01 02:51:00,
2013-08-31 22:56:00,68.2,63.2,29.86,NNE,22,0.0,0.0,84,0.00,,,0.04,WUHU21623XXSP,2013-09-01 02:56:00,
2013-08-31 23:01:00,68.0,63.0,29.86,NNE,22,0.0,0.0,84,0.00,,,0.04,WUHU21623XXSP,2013-09-01 03:01:00,
2013-08-31 23:06:00,68.0,63.0,29.86,NNE,22,0.0,0.0,84,0.00,,,0.04,WUHU21623XXSP,2013-09-01 03:06:00,
2013-08-31 23:11:00,68.2,63.2,29.86,NNE,22,0.0,0.0,84,0.00,,,0.04,WUHU21623XXSP,2013-09-01 03:11:00,
2013-08-31 23:17:00,68.2,63.2,29.86,NNE,22,0.0,0.0,84,0.00,,,0.04,WUHU21623XXSP,2013-09-01 03:17:00,
2013-08-31 23:22:00,68.2,63.2,29.86,NE,45,0.0,0.0,84,0.00,,,0.04,WUHU21623XXSP,2013-09-01 03:22:00,
2013-08-31 23:27:00,68.2,63.2,29.86,NE,45,0.0,0.0,84,0.00,,,0.04,WUHU21623XXSP,2013-09-01 03:27:00,
2013-08-31 23:32:00,68.2,63.5,29.86,NE,45,0.0,0.0,85,0.00,,,0.04,WUHU21623XXSP,2013-09-01 03:32:00,
2013-08-31 23:37:00,68.2,63.5,29.86,NE,45,0.0,0.0,85,0.00,,,0.04,WUHU21623XXSP,2013-09-01 03:37:00,
2013-08-31 23:42:00,68.2,63.2,29.85,NE,45,0.0,0.0,84,0.00,,,0.04,WUHU21623XXSP,2013-09-01 03:42:00,
2013-08-31 23:47:00,67.8,62.8,29.85,NE,45,0.0,0.0,84,0.00,,,0.04,WUHU21623XXSP,2013-09-01 03:47:00,
2013-08-31 23:52:00,67.6,63.0,29.85,NE,45,0.0,0.0,85,0.00,,,0.04,WUHU21623XXSP,2013-09-01 03:52:00,
2013-08-31 23:57:00,67.5,62.9,29.85,NE,45,0.0,0.0,85,0.00,,,0.04,WUHU21623XXSP,2013-09-01 03:57:00,